TimeMST,TemperatureF,Dew PointF,Humidity,Sea Level PressureIn,VisibilityMPH,Wind Direction,Wind SpeedMPH,Gust SpeedMPH,PrecipitationIn,Events,Conditions,WindDirDegrees,DateUTC
12:53 AM,30.9,26.1,82,30.07,10.0,Calm,Calm,-,N/A,,Overcast,0,2012-12-11 07:53:00
1:53 AM,32.0,26.1,79,30.04,10.0,Calm,Calm,-,N/A,,Overcast,0,2012-12-11 08:53:00
2:49 AM,32.0,26.6,80,29.95,3.0,Calm,Calm,-,0.00,Snow,Light Snow,0,2012-12-11 09:49:00
2:53 AM,32.0,27.0,82,30.03,3.0,Calm,Calm,-,0.00,Snow,Light Snow,0,2012-12-11 09:53:00
3:53 AM,30.9,27.0,85,30.00,10.0,Calm,Calm,-,0.00,,Overcast,0,2012-12-11 10:53:00
4:53 AM,30.9,28.0,89,29.95,10.0,NW,3.5,-,N/A,,Overcast,320,2012-12-11 11:53:00
5:53 AM,30.9,28.0,89,29.91,10.0,Calm,Calm,-,N/A,,Overcast,0,2012-12-11 12:53:00
6:53 AM,30.0,28.0,92,29.88,10.0,ESE,3.5,-,N/A,,Overcast,110,2012-12-11 13:53:00
7:53 AM,30.0,28.0,92,29.86,10.0,West,4.6,-,N/A,,Overcast,270,2012-12-11 14:53:00
8:53 AM,30.9,28.0,89,29.83,10.0,NW,3.5,-,N/A,,Mostly Cloudy,310,2012-12-11 15:53:00
9:53 AM,30.0,28.0,92,29.83,9.0,Calm,Calm,-,N/A,,Mostly Cloudy,0,2012-12-11 16:53:00
10:53 AM,30.9,28.9,92,29.81,10.0,ESE,4.6,-,N/A,,Overcast,120,2012-12-11 17:53:00
11:53 AM,32.0,28.9,88,29.77,10.0,NNW,4.6,-,N/A,,Overcast,330,2012-12-11 18:53:00
12:53 PM,32.0,28.9,88,29.75,10.0,Calm,Calm,-,N/A,,Overcast,0,2012-12-11 19:53:00
1:53 PM,34.0,30.0,85,29.70,10.0,Calm,Calm,-,N/A,,Scattered Clouds,0,2012-12-11 20:53:00
2:53 PM,36.0,30.0,79,29.68,10.0,Calm,Calm,-,N/A,,Overcast,0,2012-12-11 21:53:00
3:53 PM,36.0,30.0,79,29.68,10.0,NNE,3.5,-,N/A,,Overcast,20,2012-12-11 22:53:00
4:53 PM,37.9,28.9,70,29.66,10.0,NE,5.8,-,N/A,,Overcast,50,2012-12-11 23:53:00
5:53 PM,37.0,30.0,76,29.66,10.0,NW,4.6,-,N/A,,Overcast,320,2012-12-12 00:53:00
6:53 PM,36.0,30.0,79,29.65,10.0,NNW,3.5,-,N/A,,Overcast,330,2012-12-12 01:53:00
7:53 PM,36.0,30.0,79,29.63,10.0,Calm,Calm,-,N/A,,Overcast,0,2012-12-12 02:53:00
8:53 PM,35.1,30.0,82,29.63,10.0,Calm,Calm,-,N/A,,Overcast,0,2012-12-12 03:53:00
9:53 PM,34.0,30.0,85,29.64,10.0,NW,5.8,-,N/A,,Overcast,310,2012-12-12 04:53:00
10:30 PM,33.8,28.4,81,29.56,10.0,SSE,3.5,-,N/A,,Overcast,160,2012-12-12 05:30:00
10:53 PM,33.8,30.2,87,29.56,10.0,SW,3.5,-,N/A,,Overcast,220,2012-12-12 05:53:00
11:53 PM,32.0,30.0,92,29.62,10.0,Calm,Calm,-,N/A,,Mostly Cloudy,0,2012-12-12 06:53:00